Regional Weather Roundup
Issued by NWS Goodland, KS

Home | Current Version | Previous Version | Text Only | Print | Product List | Glossary On
Versions: 1 2 3 4 5 6 7 8 9 10 11 12 13 14 15 16 17 18 19 20 21 22 23 24 25 26 27 28 29 30 31 32 33 34 35 36 37 38 39 40 41 42 43 44 45 46 47 48 49 50
000
ASUS43 KGLD 270259
RWRGLD

GOODLAND FORECAST AREA HOURLY WEATHER ROUNDUP
NATIONAL WEATHER SERVICE GOODLAND KS
800 PM MST WED NOV 26 2014

...OFFICIAL OBSERVATIONS...

CITY           SKY/WX    TMP DP  RH WIND       PRES   REMARKS
GOODLAND KS    CLOUDY    26  23  88 SE5       30.33R
HILL CITY KS   CLOUDY    33  19  56 NE3       30.41R
IMPERIAL NEB   CLOUDY    31  28  89 CALM      30.33S
MCCOOK NEB     CLOUDY    32  21  64 NE6       30.38R
AKRON CO       MOCLDY    24  22  91 SE13      30.26S WCI  12
BURLINGTON CO  PTCLDY    23  20  88 S10       30.30F WCI  12
LIMON CO       CLEAR     27  20  75 S10       30.27S WCI  17
$$

...UNOFFICIAL OBSERVATIONS...

CITY           SKY/WX    TMP DP  RH WIND       PRES   REMARKS
COLBY KS       CLOUDY    34  30  86 CALM      30.35S
GOVE KS          N/A     35  32  89 MISG        N/A
NORTON KS      CLOUDY    30  16  55 CALM      30.38R
SHARON SPRINGS   N/A     26  21  82 CALM        N/A
TRIBUNE KS     PTCLDY    27  23  86 E5        30.36S
TRENTON NEB      N/A     32  32 100 CALM        N/A
YUMA CO          N/A     25  21  85 CALM        N/A
$$


USA.gov is the U.S. government's official web portal to all federal, state and local government web resources and services.